Year,Month,Day,Hour,Minute,Value (Times are PST for temperature in C)
2006,07,23,00,00,22.60
2006,07,23,00,01,22.50
2006,07,23,00,02,22.50
2006,07,23,00,03,22.50
2006,07,23,00,04,22.50
2006,07,23,00,05,22.40
2006,07,23,00,06,22.40
2006,07,23,00,07,22.40
2006,07,23,00,08,22.40
2006,07,23,00,09,22.40
2006,07,23,00,10,22.40
2006,07,23,00,11,22.40
2006,07,23,00,12,22.30
2006,07,23,00,13,22.30
2006,07,23,00,14,22.20
2006,07,23,00,15,22.20
2006,07,23,00,16,22.20
2006,07,23,00,17,22.10
2006,07,23,00,18,22.10
2006,07,23,00,19,22.10
2006,07,23,00,20,22.00
2006,07,23,00,21,22.00
2006,07,23,00,22,22.00
2006,07,23,00,23,22.00
2006,07,23,00,24,22.00
2006,07,23,00,25,21.90
2006,07,23,00,26,21.90
2006,07,23,00,27,21.90
2006,07,23,00,28,21.90
2006,07,23,00,29,21.90
2006,07,23,00,30,21.80
2006,07,23,00,31,21.80
2006,07,23,00,32,21.80
2006,07,23,00,33,21.80
2006,07,23,00,34,21.80
2006,07,23,00,35,21.80
2006,07,23,00,36,21.80
2006,07,23,00,37,21.90
2006,07,23,00,38,21.90
2006,07,23,00,39,21.90
2006,07,23,00,40,21.90
2006,07,23,00,41,21.90
2006,07,23,00,42,21.90
2006,07,23,00,43,21.90
2006,07,23,00,44,22.00
2006,07,23,00,45,22.00
2006,07,23,00,46,22.00
2006,07,23,00,47,22.00
2006,07,23,00,48,22.00
2006,07,23,00,49,21.90
2006,07,23,00,50,21.90
2006,07,23,00,51,21.80
2006,07,23,00,52,21.80
2006,07,23,00,53,21.80
2006,07,23,00,54,21.80
2006,07,23,00,55,21.80
2006,07,23,00,56,21.80
2006,07,23,00,57,21.80
2006,07,23,00,58,21.80
2006,07,23,00,59,21.70
2006,07,23,01,00,21.70
2006,07,23,01,01,21.70
2006,07,23,01,02,21.70
2006,07,23,01,03,21.70
2006,07,23,01,04,21.70
2006,07,23,01,05,21.70
2006,07,23,01,06,21.70
2006,07,23,01,07,21.70
2006,07,23,01,08,21.70
2006,07,23,01,09,21.70
2006,07,23,01,10,21.70
2006,07,23,01,11,21.70
2006,07,23,01,12,21.70
2006,07,23,01,13,21.70
2006,07,23,01,14,21.70
2006,07,23,01,15,21.70
2006,07,23,01,16,21.70
2006,07,23,01,17,21.70
2006,07,23,01,18,21.70
2006,07,23,01,19,21.70
2006,07,23,01,20,21.70
2006,07,23,01,21,21.60
2006,07,23,01,22,21.60
2006,07,23,01,23,21.60
2006,07,23,01,24,21.50
2006,07,23,01,25,21.50
2006,07,23,01,26,21.50
2006,07,23,01,27,21.40
2006,07,23,01,28,21.40
2006,07,23,01,29,21.40
2006,07,23,01,30,21.30
2006,07,23,01,31,21.30
2006,07,23,01,32,21.30
2006,07,23,01,33,21.30
2006,07,23,01,34,21.20
2006,07,23,01,35,21.20
2006,07,23,01,36,21.20
2006,07,23,01,37,21.20
2006,07,23,01,38,21.20
2006,07,23,01,39,21.10
2006,07,23,01,40,21.10
2006,07,23,01,41,21.10
2006,07,23,01,42,21.10
2006,07,23,01,43,21.10
2006,07,23,01,44,21.10
2006,07,23,01,45,21.10
2006,07,23,01,46,21.10
2006,07,23,01,47,21.10
2006,07,23,01,48,21.00
2006,07,23,01,49,21.00
2006,07,23,01,50,20.90
2006,07,23,01,51,20.90
2006,07,23,01,52,20.90
2006,07,23,01,53,20.90
2006,07,23,01,54,20.90
2006,07,23,01,55,20.80
2006,07,23,01,56,20.80
2006,07,23,01,57,20.80
2006,07,23,01,58,20.80
2006,07,23,01,59,20.80
2006,07,23,02,00,20.80
2006,07,23,02,01,20.80
2006,07,23,02,02,20.90
2006,07,23,02,03,20.90
2006,07,23,02,04,20.90
2006,07,23,02,05,20.90
2006,07,23,02,06,20.90
2006,07,23,02,07,20.90
2006,07,23,02,08,20.90
2006,07,23,02,09,20.90
2006,07,23,02,10,20.90
2006,07,23,02,11,20.90
2006,07,23,02,12,20.90
2006,07,23,02,13,20.80
2006,07,23,02,14,20.80
2006,07,23,02,15,20.80
2006,07,23,02,16,20.80
2006,07,23,02,17,20.80
2006,07,23,02,18,20.80
2006,07,23,02,19,20.80
2006,07,23,02,20,20.70
2006,07,23,02,21,20.70
2006,07,23,02,22,20.70
2006,07,23,02,23,20.70
2006,07,23,02,24,20.70
2006,07,23,02,25,20.70
2006,07,23,02,26,20.70
2006,07,23,02,27,20.70
2006,07,23,02,28,20.70
2006,07,23,02,29,20.70
2006,07,23,02,30,20.70
2006,07,23,02,31,20.70
2006,07,23,02,32,20.60
2006,07,23,02,33,20.60
2006,07,23,02,34,20.60
2006,07,23,02,35,20.60
2006,07,23,02,36,20.60
2006,07,23,02,37,20.60
2006,07,23,02,38,20.50
2006,07,23,02,39,20.50
2006,07,23,02,40,20.50
2006,07,23,02,41,20.40
2006,07,23,02,42,20.40
2006,07,23,02,43,20.40
2006,07,23,02,44,20.40
2006,07,23,02,45,20.40
2006,07,23,02,46,20.40
2006,07,23,02,47,20.40
2006,07,23,02,48,20.30
2006,07,23,02,49,20.30
2006,07,23,02,50,20.30
2006,07,23,02,51,20.30
2006,07,23,02,52,20.30
2006,07,23,02,53,20.30
2006,07,23,02,54,20.20
2006,07,23,02,55,20.20
2006,07,23,02,56,20.20
2006,07,23,02,57,20.20
2006,07,23,02,58,20.20
2006,07,23,02,59,20.10
2006,07,23,03,00,20.10
2006,07,23,03,01,20.10
2006,07,23,03,02,20.10
2006,07,23,03,03,20.10
2006,07,23,03,04,20.00
2006,07,23,03,05,20.00
2006,07,23,03,06,19.90
2006,07,23,03,07,19.90
2006,07,23,03,08,19.90
2006,07,23,03,09,19.80
2006,07,23,03,10,19.80
2006,07,23,03,11,19.80
2006,07,23,03,12,19.80
2006,07,23,03,13,19.80
2006,07,23,03,14,19.70
2006,07,23,03,15,19.70
2006,07,23,03,16,19.70
2006,07,23,03,17,19.70
2006,07,23,03,18,19.70
2006,07,23,03,19,19.70
2006,07,23,03,20,19.70
2006,07,23,03,21,19.60
2006,07,23,03,22,19.60
2006,07,23,03,23,19.60
2006,07,23,03,24,19.50
2006,07,23,03,25,19.50
2006,07,23,03,26,19.50
2006,07,23,03,27,19.50
2006,07,23,03,28,19.50
2006,07,23,03,29,19.40
2006,07,23,03,30,19.40
2006,07,23,03,31,19.40
2006,07,23,03,32,19.40
2006,07,23,03,33,19.40
2006,07,23,03,34,19.40
2006,07,23,03,35,19.40
2006,07,23,03,36,19.40
2006,07,23,03,37,19.40
2006,07,23,03,38,19.40
2006,07,23,03,39,19.30
2006,07,23,03,40,19.30
2006,07,23,03,41,19.30
2006,07,23,03,42,19.30
2006,07,23,03,43,19.30
2006,07,23,03,44,19.30
2006,07,23,03,45,19.30
2006,07,23,03,46,19.30
2006,07,23,03,47,19.30
2006,07,23,03,48,19.30
2006,07,23,03,49,19.30
2006,07,23,03,50,19.20
2006,07,23,03,51,19.30
2006,07,23,03,52,19.30
2006,07,23,03,53,19.30
2006,07,23,03,54,19.30
2006,07,23,03,55,19.30
2006,07,23,03,56,19.30
2006,07,23,03,57,19.30
2006,07,23,03,58,19.30
2006,07,23,03,59,19.30
2006,07,23,04,00,19.30
2006,07,23,04,01,19.20
2006,07,23,04,02,19.20
2006,07,23,04,03,19.20
2006,07,23,04,04,19.20
2006,07,23,04,05,19.20
2006,07,23,04,06,19.20
2006,07,23,04,07,19.10
2006,07,23,04,08,19.10
2006,07,23,04,09,19.10
2006,07,23,04,10,19.10
2006,07,23,04,11,19.10
2006,07,23,04,12,19.10
2006,07,23,04,13,19.00
2006,07,23,04,14,19.10
2006,07,23,04,15,19.00
2006,07,23,04,16,19.00
2006,07,23,04,17,18.90
2006,07,23,04,18,18.90
2006,07,23,04,19,18.90
2006,07,23,04,20,18.90
2006,07,23,04,21,18.80
2006,07,23,04,22,18.80
2006,07,23,04,23,18.80
2006,07,23,04,24,18.70
2006,07,23,04,25,18.70
2006,07,23,04,26,18.70
2006,07,23,04,27,18.70
2006,07,23,04,28,18.70
2006,07,23,04,29,18.70
2006,07,23,04,30,18.60
2006,07,23,04,31,18.60
2006,07,23,04,32,18.60
2006,07,23,04,33,18.60
2006,07,23,04,34,18.60
2006,07,23,04,35,18.60
2006,07,23,04,36,18.60
2006,07,23,04,37,18.60
2006,07,23,04,38,18.60
2006,07,23,04,39,18.60
2006,07,23,04,40,18.60
2006,07,23,04,41,18.60
2006,07,23,04,42,18.60
2006,07,23,04,43,18.60
2006,07,23,04,44,18.50
2006,07,23,04,45,18.50
2006,07,23,04,46,18.50
2006,07,23,04,47,18.50
2006,07,23,04,48,18.50
2006,07,23,04,49,18.40
2006,07,23,04,50,18.40
2006,07,23,04,51,18.40
2006,07,23,04,52,18.40
2006,07,23,04,53,18.40
2006,07,23,04,54,18.30
2006,07,23,04,55,18.30
2006,07,23,04,56,18.30
2006,07,23,04,57,18.30
2006,07,23,04,58,18.30
2006,07,23,04,59,18.30
2006,07,23,05,00,18.30
2006,07,23,05,01,18.30
2006,07,23,05,02,18.30
2006,07,23,05,03,18.30
2006,07,23,05,04,18.30
2006,07,23,05,05,18.30
2006,07,23,05,06,18.20
2006,07,23,05,07,18.20
2006,07,23,05,08,18.20
2006,07,23,05,09,18.20
2006,07,23,05,10,18.20
2006,07,23,05,11,18.20
2006,07,23,05,12,18.20
2006,07,23,05,13,18.20
2006,07,23,05,14,18.20
2006,07,23,05,15,18.30
2006,07,23,05,16,18.30
2006,07,23,05,17,18.40
2006,07,23,05,18,18.50
2006,07,23,05,19,18.50
2006,07,23,05,20,18.60
2006,07,23,05,21,18.60
2006,07,23,05,22,18.60
2006,07,23,05,23,18.60
2006,07,23,05,24,18.50
2006,07,23,05,25,18.50
2006,07,23,05,26,18.50
2006,07,23,05,27,18.50
2006,07,23,05,28,18.40
2006,07,23,05,29,18.50
2006,07,23,05,30,18.40
2006,07,23,05,31,18.40
2006,07,23,05,32,18.40
2006,07,23,05,33,18.40
2006,07,23,05,34,18.40
2006,07,23,05,35,18.40
2006,07,23,05,36,18.40
2006,07,23,05,37,18.40
2006,07,23,05,38,18.40
2006,07,23,05,39,18.40
2006,07,23,05,40,18.40
2006,07,23,05,41,18.40
2006,07,23,05,42,18.30
2006,07,23,05,43,18.30
2006,07,23,05,44,18.30
2006,07,23,05,45,18.30
2006,07,23,05,46,18.20
2006,07,23,05,47,18.20
2006,07,23,05,48,18.20
2006,07,23,05,49,18.20
2006,07,23,05,50,18.20
2006,07,23,05,51,18.20
2006,07,23,05,52,18.20
2006,07,23,05,53,18.10
2006,07,23,05,54,18.10
2006,07,23,05,55,18.10
2006,07,23,05,56,18.10
2006,07,23,05,57,18.10
2006,07,23,05,58,18.10
2006,07,23,05,59,18.10
2006,07,23,06,00,18.10
2006,07,23,06,01,18.10
2006,07,23,06,02,18.10
2006,07,23,06,03,18.10
2006,07,23,06,04,18.10
2006,07,23,06,05,18.10
2006,07,23,06,06,18.10
2006,07,23,06,07,18.10
2006,07,23,06,08,18.10
2006,07,23,06,09,18.10
2006,07,23,06,10,18.10
2006,07,23,06,11,18.10
2006,07,23,06,12,18.20
2006,07,23,06,13,18.20
2006,07,23,06,14,18.20
2006,07,23,06,15,18.20
2006,07,23,06,16,18.30
2006,07,23,06,17,18.30
2006,07,23,06,18,18.40
2006,07,23,06,19,18.40
2006,07,23,06,20,18.40
2006,07,23,06,21,18.50
2006,07,23,06,22,18.60
2006,07,23,06,23,18.60
2006,07,23,06,24,18.70
2006,07,23,06,25,18.80
2006,07,23,06,26,18.90
2006,07,23,06,27,18.90
2006,07,23,06,28,19.00
2006,07,23,06,29,19.10
2006,07,23,06,30,19.10
2006,07,23,06,31,19.20
2006,07,23,06,32,19.20
2006,07,23,06,33,19.20
2006,07,23,06,34,19.30
2006,07,23,06,35,19.30
2006,07,23,06,36,19.30
2006,07,23,06,37,19.30
2006,07,23,06,38,19.30
2006,07,23,06,39,19.30
2006,07,23,06,40,19.20
2006,07,23,06,41,19.20
2006,07,23,06,42,19.10
2006,07,23,06,43,19.10
2006,07,23,06,44,19.10
2006,07,23,06,45,19.10
2006,07,23,06,46,19.10
2006,07,23,06,47,19.10
2006,07,23,06,48,19.10
2006,07,23,06,49,19.10
2006,07,23,06,50,19.20
2006,07,23,06,51,19.20
2006,07,23,06,52,19.30
2006,07,23,06,53,19.40
2006,07,23,06,54,19.40
2006,07,23,06,55,19.50
2006,07,23,06,56,19.60
2006,07,23,06,57,19.70
2006,07,23,06,58,19.80
2006,07,23,06,59,19.90
2006,07,23,07,00,20.00
2006,07,23,07,01,20.00
2006,07,23,07,02,20.10
2006,07,23,07,03,20.10
2006,07,23,07,04,20.20
2006,07,23,07,05,20.20
2006,07,23,07,06,20.30
2006,07,23,07,07,20.30
2006,07,23,07,08,20.30
2006,07,23,07,09,20.40
2006,07,23,07,10,20.50
2006,07,23,07,11,20.60
2006,07,23,07,12,20.60
2006,07,23,07,13,20.70
2006,07,23,07,14,20.80
2006,07,23,07,15,20.80
2006,07,23,07,16,20.90
2006,07,23,07,17,20.90
2006,07,23,07,18,21.00
2006,07,23,07,19,21.10
2006,07,23,07,20,21.20
2006,07,23,07,21,21.30
2006,07,23,07,22,21.40
2006,07,23,07,23,21.40
2006,07,23,07,24,21.50
2006,07,23,07,25,21.60
2006,07,23,07,26,21.60
2006,07,23,07,27,21.60
2006,07,23,07,28,21.60
2006,07,23,07,29,21.70
2006,07,23,07,30,21.70
2006,07,23,07,31,21.80
2006,07,23,07,32,21.80
2006,07,23,07,33,21.90
2006,07,23,07,34,22.00
2006,07,23,07,35,22.10
2006,07,23,07,36,22.20
2006,07,23,07,37,22.30
2006,07,23,07,38,22.30
2006,07,23,07,39,22.40
2006,07,23,07,40,22.50
2006,07,23,07,41,22.60
2006,07,23,07,42,22.70
2006,07,23,07,43,22.80
2006,07,23,07,44,22.90
2006,07,23,07,45,23.10
2006,07,23,07,46,23.30
2006,07,23,07,47,23.40
2006,07,23,07,48,23.50
2006,07,23,07,49,23.60
2006,07,23,07,50,23.70
2006,07,23,07,51,23.70
2006,07,23,07,52,23.80
2006,07,23,07,53,23.90
2006,07,23,07,54,24.00
2006,07,23,07,55,24.20
2006,07,23,07,56,24.30
2006,07,23,07,57,24.30
2006,07,23,07,58,24.40
2006,07,23,07,59,24.50
2006,07,23,08,00,24.60
2006,07,23,08,01,24.60
2006,07,23,08,02,24.50
2006,07,23,08,03,24.50
2006,07,23,08,04,24.40
2006,07,23,08,05,24.20
2006,07,23,08,06,24.00
2006,07,23,08,07,23.80
2006,07,23,08,08,23.60
2006,07,23,08,09,23.50
2006,07,23,08,10,23.40
2006,07,23,08,11,23.30
2006,07,23,08,12,23.30
2006,07,23,08,13,23.30
2006,07,23,08,14,23.30
2006,07,23,08,15,23.30
2006,07,23,08,16,23.20
2006,07,23,08,17,23.20
2006,07,23,08,18,23.20
2006,07,23,08,19,23.30
2006,07,23,08,20,23.30
2006,07,23,08,21,23.30
2006,07,23,08,22,23.40
2006,07,23,08,23,23.40
2006,07,23,08,24,23.40
2006,07,23,08,25,23.40
2006,07,23,08,26,23.30
2006,07,23,08,27,23.20
2006,07,23,08,28,23.20
2006,07,23,08,29,23.20
2006,07,23,08,30,23.20
2006,07,23,08,31,23.20
2006,07,23,08,32,23.20
2006,07,23,08,33,23.20
2006,07,23,08,34,23.20
2006,07,23,08,35,23.20
2006,07,23,08,36,23.30
2006,07,23,08,37,23.30
2006,07,23,08,38,23.30
2006,07,23,08,39,23.30
2006,07,23,08,40,23.40
2006,07,23,08,41,23.40
2006,07,23,08,42,23.30
2006,07,23,08,43,23.30
2006,07,23,08,44,23.30
2006,07,23,08,45,23.20
2006,07,23,08,46,23.20
2006,07,23,08,47,23.30
2006,07,23,08,48,23.40
2006,07,23,08,49,23.40
2006,07,23,08,50,23.40
2006,07,23,08,51,23.40
2006,07,23,08,52,23.30
2006,07,23,08,53,23.20
2006,07,23,08,54,23.20
2006,07,23,08,55,23.20
2006,07,23,08,56,23.30
2006,07,23,08,57,23.30
2006,07,23,08,58,23.30
2006,07,23,08,59,23.30
2006,07,23,09,00,23.40
2006,07,23,09,01,23.40
2006,07,23,09,02,23.40
2006,07,23,09,03,23.40
2006,07,23,09,04,23.50
2006,07,23,09,05,23.50
2006,07,23,09,06,23.60
2006,07,23,09,07,23.50
2006,07,23,09,08,23.50
2006,07,23,09,09,23.50
2006,07,23,09,10,23.60
2006,07,23,09,11,23.60
2006,07,23,09,12,23.60
2006,07,23,09,13,23.60
2006,07,23,09,14,23.60
2006,07,23,09,15,23.70
2006,07,23,09,16,23.70
2006,07,23,09,17,23.60
2006,07,23,09,18,23.60
2006,07,23,09,19,23.60
2006,07,23,09,20,23.60
2006,07,23,09,21,23.60
2006,07,23,09,22,23.70
2006,07,23,09,23,23.80
2006,07,23,09,24,23.90
2006,07,23,09,25,23.90
2006,07,23,09,26,23.90
2006,07,23,09,27,23.90
2006,07,23,09,28,24.00
2006,07,23,09,29,24.10
2006,07,23,09,30,24.20
2006,07,23,09,31,24.10
2006,07,23,09,32,24.10
2006,07,23,09,33,24.10
2006,07,23,09,34,24.10
2006,07,23,09,35,24.20
2006,07,23,09,36,24.30
2006,07,23,09,37,24.30
2006,07,23,09,38,24.40
2006,07,23,09,39,24.40
2006,07,23,09,40,24.40
2006,07,23,09,41,24.40
2006,07,23,09,42,24.50
2006,07,23,09,43,24.60
2006,07,23,09,44,24.50
2006,07,23,09,45,24.30
2006,07,23,09,46,24.30
2006,07,23,09,47,24.30
2006,07,23,09,48,24.40
2006,07,23,09,49,24.40
2006,07,23,09,50,24.40
2006,07,23,09,51,24.40
2006,07,23,09,52,24.40
2006,07,23,09,53,24.30
2006,07,23,09,54,24.30
2006,07,23,09,55,24.40
2006,07,23,09,56,24.50
2006,07,23,09,57,24.50
2006,07,23,09,58,24.50
2006,07,23,09,59,24.50
2006,07,23,10,00,24.40
2006,07,23,10,01,24.40
2006,07,23,10,02,24.40
2006,07,23,10,03,24.50
2006,07,23,10,04,24.60
2006,07,23,10,05,24.50
2006,07,23,10,06,24.40
2006,07,23,10,07,24.40
2006,07,23,10,08,24.30
2006,07,23,10,09,24.40
2006,07,23,10,10,24.40
2006,07,23,10,11,24.40
2006,07,23,10,12,24.50
2006,07,23,10,13,24.50
2006,07,23,10,14,24.60
2006,07,23,10,15,24.60
2006,07,23,10,16,24.50
2006,07,23,10,17,24.60
2006,07,23,10,18,24.60
2006,07,23,10,19,24.60
2006,07,23,10,20,24.60
2006,07,23,10,21,24.60
2006,07,23,10,22,24.60
2006,07,23,10,23,24.50
2006,07,23,10,24,24.50
2006,07,23,10,25,24.50
2006,07,23,10,26,24.50
2006,07,23,10,27,24.50
2006,07,23,10,28,24.60
2006,07,23,10,29,24.60
2006,07,23,10,30,24.70
2006,07,23,10,31,24.60
2006,07,23,10,32,24.60
2006,07,23,10,33,24.60
2006,07,23,10,34,24.60
2006,07,23,10,35,24.70
2006,07,23,10,36,24.80
2006,07,23,10,37,24.80
2006,07,23,10,38,24.80
2006,07,23,10,39,24.70
2006,07,23,10,40,24.80
2006,07,23,10,41,24.90
2006,07,23,10,42,25.00
2006,07,23,10,43,25.00
2006,07,23,10,44,24.90
2006,07,23,10,45,24.90
2006,07,23,10,46,24.90
2006,07,23,10,47,24.80
2006,07,23,10,48,24.80
2006,07,23,10,49,24.90
2006,07,23,10,50,25.00
2006,07,23,10,51,25.10
2006,07,23,10,52,25.00
2006,07,23,10,53,24.90
2006,07,23,10,54,24.90
2006,07,23,10,55,25.00
2006,07,23,10,56,25.10
2006,07,23,10,57,25.30
2006,07,23,10,58,25.30
2006,07,23,10,59,25.30
2006,07,23,11,00,25.40
2006,07,23,11,01,25.40
2006,07,23,11,02,25.40
2006,07,23,11,03,25.50
2006,07,23,11,04,25.50
2006,07,23,11,05,25.40
2006,07,23,11,06,25.30
2006,07,23,11,07,25.30
2006,07,23,11,08,25.40
2006,07,23,11,09,25.50
2006,07,23,11,10,25.60
2006,07,23,11,11,25.70
2006,07,23,11,12,25.80
2006,07,23,11,13,25.70
2006,07,23,11,14,25.80
2006,07,23,11,15,25.90
2006,07,23,11,16,25.90
2006,07,23,11,17,25.90
2006,07,23,11,18,25.90
2006,07,23,11,19,25.90
2006,07,23,11,20,25.90
2006,07,23,11,21,26.00
2006,07,23,11,22,26.00
2006,07,23,11,23,26.10
2006,07,23,11,24,26.20
2006,07,23,11,25,26.20
2006,07,23,11,26,26.20
2006,07,23,11,27,26.30
2006,07,23,11,28,26.40
2006,07,23,11,29,26.40
2006,07,23,11,30,26.40
2006,07,23,11,31,26.40
2006,07,23,11,32,26.30
2006,07,23,11,33,26.20
2006,07,23,11,34,26.10
2006,07,23,11,35,26.20
2006,07,23,11,36,26.20
2006,07,23,11,37,26.20
2006,07,23,11,38,26.10
2006,07,23,11,39,26.00
2006,07,23,11,40,25.90
2006,07,23,11,41,25.90
2006,07,23,11,42,26.00
2006,07,23,11,43,26.10
2006,07,23,11,44,26.10
2006,07,23,11,45,26.10
2006,07,23,11,46,26.20
2006,07,23,11,47,26.20
2006,07,23,11,48,26.20
2006,07,23,11,49,26.30
2006,07,23,11,50,26.30
2006,07,23,11,51,26.30
2006,07,23,11,52,26.30
2006,07,23,11,53,26.40
2006,07,23,11,54,26.60
2006,07,23,11,55,26.70
2006,07,23,11,56,26.70
2006,07,23,11,57,26.60
2006,07,23,11,58,26.50
2006,07,23,11,59,26.50
2006,07,23,12,00,26.50
2006,07,23,12,01,26.60
2006,07,23,12,02,26.80
2006,07,23,12,03,26.90
2006,07,23,12,04,27.00
2006,07,23,12,05,26.90
2006,07,23,12,06,26.90
2006,07,23,12,07,26.90
2006,07,23,12,08,26.90
2006,07,23,12,09,26.90
2006,07,23,12,10,26.90
2006,07,23,12,11,26.80
2006,07,23,12,12,26.70
2006,07,23,12,13,26.70
2006,07,23,12,14,26.70
2006,07,23,12,15,26.70
2006,07,23,12,16,26.70
2006,07,23,12,17,26.70
2006,07,23,12,18,26.80
2006,07,23,12,19,26.80
2006,07,23,12,20,26.80
2006,07,23,12,21,26.90
2006,07,23,12,22,27.00
2006,07,23,12,23,27.20
2006,07,23,12,24,27.20
2006,07,23,12,25,27.20
2006,07,23,12,26,27.30
2006,07,23,12,27,27.30
2006,07,23,12,28,27.30
2006,07,23,12,29,27.30
2006,07,23,12,30,27.30
2006,07,23,12,31,27.30
2006,07,23,12,32,27.40
2006,07,23,12,33,27.50
2006,07,23,12,34,27.60
2006,07,23,12,35,27.40
2006,07,23,12,36,27.30
2006,07,23,12,37,27.20
2006,07,23,12,38,27.20
2006,07,23,12,39,27.20
2006,07,23,12,40,27.30
2006,07,23,12,41,27.20
2006,07,23,12,42,27.20
2006,07,23,12,43,27.20
2006,07,23,12,44,27.20
2006,07,23,12,45,27.30
2006,07,23,12,46,27.20
2006,07,23,12,47,27.10
2006,07,23,12,48,27.10
2006,07,23,12,49,27.20
2006,07,23,12,50,27.40
2006,07,23,12,51,27.50
2006,07,23,12,52,27.60
2006,07,23,12,53,27.60
2006,07,23,12,54,27.50
2006,07,23,12,55,27.50
2006,07,23,12,56,27.40
2006,07,23,12,57,27.50
2006,07,23,12,58,27.60
2006,07,23,12,59,27.80
2006,07,23,13,00,27.80
2006,07,23,13,01,27.90
2006,07,23,13,02,27.80
2006,07,23,13,03,27.70
2006,07,23,13,04,27.60
2006,07,23,13,05,27.50
2006,07,23,13,06,27.40
2006,07,23,13,07,27.30
2006,07,23,13,08,27.40
2006,07,23,13,09,27.30
2006,07,23,13,10,27.30
2006,07,23,13,11,27.40
2006,07,23,13,12,27.50
2006,07,23,13,13,27.50
2006,07,23,13,14,27.60
2006,07,23,13,15,27.60
2006,07,23,13,16,27.70
2006,07,23,13,17,27.80
2006,07,23,13,18,27.90
2006,07,23,13,19,27.90
2006,07,23,13,20,27.90
2006,07,23,13,21,27.90
2006,07,23,13,22,27.90
2006,07,23,13,23,27.80
2006,07,23,13,24,27.90
2006,07,23,13,25,27.90
2006,07,23,13,26,27.80
2006,07,23,13,27,27.80
2006,07,23,13,28,27.90
2006,07,23,13,29,27.90
2006,07,23,13,30,27.90
2006,07,23,13,31,27.80
2006,07,23,13,32,27.80
2006,07,23,13,33,27.70
2006,07,23,13,34,27.70
2006,07,23,13,35,27.80
2006,07,23,13,36,27.90
2006,07,23,13,37,28.00
2006,07,23,13,38,28.10
2006,07,23,13,39,28.20
2006,07,23,13,40,28.20
2006,07,23,13,41,28.40
2006,07,23,13,42,28.40
2006,07,23,13,43,28.40
2006,07,23,13,44,28.40
2006,07,23,13,45,28.40
2006,07,23,13,46,28.40
2006,07,23,13,47,28.50
2006,07,23,13,48,28.50
2006,07,23,13,49,28.60
2006,07,23,13,50,28.70
2006,07,23,13,51,28.60
2006,07,23,13,52,28.40
2006,07,23,13,53,28.40
2006,07,23,13,54,28.40
2006,07,23,13,55,28.40
2006,07,23,13,56,28.50
2006,07,23,13,57,28.50
2006,07,23,13,58,28.40
2006,07,23,13,59,28.40
2006,07,23,14,00,28.40
2006,07,23,14,01,28.40
2006,07,23,14,02,28.40
2006,07,23,14,03,28.30
2006,07,23,14,04,28.40
2006,07,23,14,05,28.50
2006,07,23,14,06,28.40
2006,07,23,14,07,28.50
2006,07,23,14,08,28.60
2006,07,23,14,09,28.80
2006,07,23,14,10,28.90
2006,07,23,14,11,29.00
2006,07,23,14,12,29.00
2006,07,23,14,13,29.00
2006,07,23,14,14,28.90
2006,07,23,14,15,29.00
2006,07,23,14,16,29.00
2006,07,23,14,17,29.00
2006,07,23,14,18,28.90
2006,07,23,14,19,28.90
2006,07,23,14,20,28.90
2006,07,23,14,21,29.00
2006,07,23,14,22,29.00
2006,07,23,14,23,29.00
2006,07,23,14,24,29.10
2006,07,23,14,25,29.30
2006,07,23,14,26,29.50
2006,07,23,14,27,29.70
2006,07,23,14,28,29.90
2006,07,23,14,29,30.00
2006,07,23,14,30,30.10
2006,07,23,14,31,30.10
2006,07,23,14,32,30.00
2006,07,23,14,33,30.00
2006,07,23,14,34,30.00
2006,07,23,14,35,30.10
2006,07,23,14,36,30.10
2006,07,23,14,37,30.20
2006,07,23,14,38,30.30
2006,07,23,14,39,30.10
2006,07,23,14,40,29.80
2006,07,23,14,41,29.50
2006,07,23,14,42,29.30
2006,07,23,14,43,29.30
2006,07,23,14,44,29.50
2006,07,23,14,45,29.50
2006,07,23,14,46,29.60
2006,07,23,14,47,29.50
2006,07,23,14,48,29.50
2006,07,23,14,49,29.60
2006,07,23,14,50,29.70
2006,07,23,14,51,29.60
2006,07,23,14,52,29.60
2006,07,23,14,53,29.50
2006,07,23,14,54,29.60
2006,07,23,14,55,29.70
2006,07,23,14,56,29.80
2006,07,23,14,57,29.80
2006,07,23,14,58,29.80
2006,07,23,14,59,29.70
2006,07,23,15,00,29.50
2006,07,23,15,01,29.40
2006,07,23,15,02,29.40
2006,07,23,15,03,29.60
2006,07,23,15,04,29.70
2006,07,23,15,05,29.60
2006,07,23,15,06,29.60
2006,07,23,15,07,29.70
2006,07,23,15,08,29.70
2006,07,23,15,09,29.70
2006,07,23,15,10,29.70
2006,07,23,15,11,29.80
2006,07,23,15,12,29.80
2006,07,23,15,13,29.80
2006,07,23,15,14,29.80
2006,07,23,15,15,29.90
2006,07,23,15,16,29.90
2006,07,23,15,17,29.80
2006,07,23,15,18,29.80
2006,07,23,15,19,29.80
2006,07,23,15,20,30.00
2006,07,23,15,21,30.10
2006,07,23,15,22,30.30
2006,07,23,15,23,30.30
2006,07,23,15,24,30.30
2006,07,23,15,25,30.30
2006,07,23,15,26,30.20
2006,07,23,15,27,30.20
2006,07,23,15,28,30.20
2006,07,23,15,29,30.20
2006,07,23,15,30,30.20
2006,07,23,15,31,30.20
2006,07,23,15,32,30.20
2006,07,23,15,33,30.20
2006,07,23,15,34,30.00
2006,07,23,15,35,29.90
2006,07,23,15,36,30.00
2006,07,23,15,37,30.20
2006,07,23,15,38,30.30
2006,07,23,15,39,30.60
2006,07,23,15,40,30.50
2006,07,23,15,41,30.50
2006,07,23,15,42,30.40
2006,07,23,15,43,30.30
2006,07,23,15,44,30.30
2006,07,23,15,45,30.40
2006,07,23,15,46,30.40
2006,07,23,15,47,30.40
2006,07,23,15,48,30.50
2006,07,23,15,49,30.50
2006,07,23,15,50,30.60
2006,07,23,15,51,30.60
2006,07,23,15,52,30.60
2006,07,23,15,53,30.60
2006,07,23,15,54,30.80
2006,07,23,15,55,30.90
2006,07,23,15,56,30.80
2006,07,23,15,57,30.60
2006,07,23,15,58,30.60
2006,07,23,15,59,30.50
2006,07,23,16,00,30.50
2006,07,23,16,01,30.60
2006,07,23,16,02,30.60
2006,07,23,16,03,30.60
2006,07,23,16,04,30.60
2006,07,23,16,05,30.70
2006,07,23,16,06,30.80
2006,07,23,16,07,30.70
2006,07,23,16,08,30.70
2006,07,23,16,09,30.80
2006,07,23,16,10,31.00
2006,07,23,16,11,31.10
2006,07,23,16,12,31.20
2006,07,23,16,13,31.20
2006,07,23,16,14,31.20
2006,07,23,16,15,31.10
2006,07,23,16,16,31.10
2006,07,23,16,17,31.10
2006,07,23,16,18,31.00
2006,07,23,16,19,31.00
2006,07,23,16,20,30.90
2006,07,23,16,21,30.80
2006,07,23,16,22,30.80
2006,07,23,16,23,30.70
2006,07,23,16,24,30.70
2006,07,23,16,25,30.70
2006,07,23,16,26,30.60
2006,07,23,16,27,30.60
2006,07,23,16,28,30.60
2006,07,23,16,29,30.80
2006,07,23,16,30,31.00
2006,07,23,16,31,31.20
2006,07,23,16,32,31.30
2006,07,23,16,33,31.40
2006,07,23,16,34,31.50
2006,07,23,16,35,31.60
2006,07,23,16,36,31.60
2006,07,23,16,37,31.60
2006,07,23,16,38,31.60
2006,07,23,16,39,31.60
2006,07,23,16,40,31.70
2006,07,23,16,41,31.70
2006,07,23,16,42,31.70
2006,07,23,16,43,31.70
2006,07,23,16,44,31.70
2006,07,23,16,45,31.70
2006,07,23,16,46,31.70
2006,07,23,16,47,31.80
2006,07,23,16,48,31.90
2006,07,23,16,49,32.10
2006,07,23,16,50,32.40
2006,07,23,16,51,32.50
2006,07,23,16,52,32.70
2006,07,23,16,53,32.80
2006,07,23,16,54,32.90
2006,07,23,16,55,33.00
2006,07,23,16,56,32.80
2006,07,23,16,57,32.60
2006,07,23,16,58,32.60
2006,07,23,16,59,32.50
2006,07,23,17,00,32.40
2006,07,23,17,01,32.30
2006,07,23,17,02,32.30
2006,07,23,17,03,32.20
2006,07,23,17,04,32.10
2006,07,23,17,05,32.10
2006,07,23,17,06,32.10
2006,07,23,17,07,32.20
2006,07,23,17,08,32.30
2006,07,23,17,09,32.40
2006,07,23,17,10,32.40
2006,07,23,17,11,32.60
2006,07,23,17,12,32.70
2006,07,23,17,13,32.70
2006,07,23,17,14,32.70
2006,07,23,17,15,32.80
2006,07,23,17,16,32.90
2006,07,23,17,17,32.90
2006,07,23,17,18,32.80
2006,07,23,17,19,32.80